�������l�o���
Date,Time,MP-1(��Sv/h),MP-2(��Sv/h),MP-3(��Sv/h),MP-4(��Sv/h),MP-5(��Sv/h),MP-6(��Sv/h),MP-7(��Sv/h),MP-8(��Sv/h),����,����(m/s),���J
2015/12/10,00:00,1.702,2.707,3.177,2.953,-,0.873,1.545,1.472,�쐼,2.3,��
2015/12/10,00:10,1.703,2.708,3.177,2.955,-,0.875,1.545,1.473,���쐼,2.0,��
2015/12/10,00:20,1.703,2.703,3.178,2.955,-,0.875,1.545,1.477,�쐼,1.9,��
2015/12/10,00:30,1.703,2.705,3.172,2.957,-,0.875,1.543,1.475,���쐼,2.3,��
2015/12/10,00:40,1.700,2.703,3.172,2.957,-,0.872,1.543,1.475,�쐼,1.2,��
2015/12/10,00:50,1.703,2.705,3.173,2.957,-,0.875,1.545,1.477,��,2.5,��
2015/12/10,01:00,1.702,2.703,3.175,2.957,-,0.873,1.545,1.472,��쐼,3.2,��
2015/12/10,01:10,1.702,2.705,3.178,2.953,-,0.875,1.547,1.475,��쐼,3.3,��
2015/12/10,01:20,1.700,2.705,3.177,2.957,-,0.875,1.545,1.477,��쐼,3.4,��
2015/12/10,01:30,1.698,2.703,3.172,2.953,-,0.870,1.543,1.477,�쐼,3.4,��
2015/12/10,01:40,1.700,2.700,3.173,2.952,-,0.872,1.542,1.473,�쐼,1.9,��
2015/12/10,01:50,1.702,2.702,3.177,2.953,-,0.873,1.545,1.475,�쐼,1.9,��
2015/12/10,02:00,1.700,2.703,3.177,2.955,-,0.875,1.545,1.475,�쐼,2.3,��
2015/12/10,02:10,1.702,2.705,3.175,2.952,-,0.875,1.547,1.475,�쐼,2.3,��
2015/12/10,02:20,1.700,2.705,3.172,2.953,-,0.873,1.545,1.473,��쐼,3.6,��
2015/12/10,02:30,1.703,2.702,3.168,2.952,-,0.875,1.547,1.473,��쐼,6.0,��
2015/12/10,02:40,1.702,2.707,3.170,2.952,-,0.873,1.545,1.477,��쐼,5.8,��
2015/12/10,02:50,1.702,2.702,3.173,2.955,-,0.873,1.543,1.473,��쐼,6.1,��
2015/12/10,03:00,1.702,2.705,3.173,2.955,-,0.873,1.545,1.473,��쐼,6.9,��
2015/12/10,03:10,1.698,2.702,3.173,2.955,-,0.873,1.543,1.475,�쐼,6.3,��
2015/12/10,03:20,1.702,2.705,3.172,2.955,-,0.875,1.543,1.475,�쐼,7.1,��
2015/12/10,03:30,1.702,2.705,3.173,2.955,-,0.873,1.545,1.475,�쐼,7.1,��
2015/12/10,03:40,1.703,2.705,3.175,2.957,-,0.872,1.547,1.475,�쐼,6.2,��
2015/12/10,03:50,1.703,2.703,3.175,2.957,-,0.872,1.545,1.477,�쐼,6.6,��
2015/12/10,04:00,1.703,2.703,3.172,2.955,-,0.873,1.547,1.475,�쐼,5.4,��
2015/12/10,04:10,1.703,2.703,3.172,2.953,-,0.875,1.545,1.477,�쐼,4.9,��
2015/12/10,04:20,1.703,2.703,3.172,2.953,-,0.873,1.543,1.477,��쐼,5.6,��
2015/12/10,04:30,1.705,2.703,3.172,2.953,-,0.873,1.547,1.478,��쐼,5.9,��
2015/12/10,04:40,1.703,2.702,3.175,2.955,-,0.875,1.547,1.477,��쐼,4.8,��
2015/12/10,04:50,1.705,2.705,3.173,2.957,-,0.873,1.547,1.477,��쐼,4.9,��
2015/12/10,05:00,1.707,2.703,3.177,2.952,-,0.873,1.547,1.477,��쐼,4.7,��
2015/12/10,05:10,1.703,2.702,3.173,2.958,-,0.875,1.548,1.478,��쐼,5.0,��
2015/12/10,05:20,1.703,2.703,3.173,2.955,-,0.873,1.547,1.473,��쐼,4.8,��
2015/12/10,05:30,1.705,2.702,3.172,2.955,-,0.873,1.547,1.475,��쐼,4.8,��
2015/12/10,05:40,1.703,2.705,3.175,2.955,-,0.872,1.545,1.477,��쐼,4.9,��
2015/12/10,05:50,1.703,2.705,3.173,2.952,-,0.873,1.547,1.477,��,4.7,��
2015/12/10,06:00,1.703,2.705,3.175,2.952,-,0.870,1.545,1.475,��쐼,3.7,��
2015/12/10,06:10,1.703,2.705,3.175,2.955,-,0.870,1.547,1.477,�쐼,3.0,��
2015/12/10,06:20,1.708,2.703,3.175,2.955,-,0.868,1.545,1.478,��쐼,2.5,��
2015/12/10,06:30,1.707,2.703,3.173,2.953,-,0.870,1.547,1.477,��쐼,1.9,��
2015/12/10,06:40,1.703,2.703,3.173,2.955,-,0.872,1.545,1.475,��쓌,1.2,��
2015/12/10,06:50,1.702,2.705,3.173,2.957,-,0.868,1.545,1.477,�쐼,1.7,��
2015/12/10,07:00,1.703,2.705,3.172,2.957,-,0.872,1.545,1.473,��,2.0,��
2015/12/10,07:10,1.707,2.705,3.173,2.955,-,0.873,1.547,1.475,��,2.2,��
2015/12/10,07:20,1.707,2.702,3.173,2.955,-,0.870,1.545,1.475,��쐼,4.5,��
2015/12/10,07:30,1.708,2.702,3.173,2.953,-,0.867,1.543,1.477,��쐼,3.7,��
2015/12/10,07:40,1.705,2.705,3.173,2.958,-,0.868,1.547,1.478,��,3.9,��
2015/12/10,07:50,1.705,2.707,3.173,2.960,-,0.868,1.545,1.475,��쐼,2.8,��
2015/12/10,08:00,1.705,2.708,3.173,2.958,-,0.868,1.547,1.475,��쐼,2.0,��
2015/12/10,08:10,1.707,2.705,3.172,2.958,-,0.870,1.547,1.477,��쐼,3.1,��
2015/12/10,08:20,1.705,2.708,3.173,2.960,-,0.872,1.547,1.477,��,2.6,��
2015/12/10,08:30,1.707,2.703,3.175,2.962,-,0.870,1.547,1.477,��,3.5,��
2015/12/10,08:40,1.705,2.708,3.178,2.963,-,0.872,1.548,1.473,��,3.9,��
2015/12/10,08:50,1.705,2.710,3.180,2.962,-,0.872,1.548,1.475,��,3.1,��
2015/12/10,09:00,1.707,2.710,3.178,2.962,-,0.872,1.552,1.477,��,2.2,��
2015/12/10,09:10,1.705,2.712,3.185,2.962,-,0.872,1.550,1.478,-,CALM,��
2015/12/10,09:20,1.707,2.708,3.188,2.963,-,0.872,1.552,1.475,�쓌,0.9,��
2015/12/10,09:30,1.708,2.712,3.190,2.963,-,0.872,1.550,1.473,���쓌,0.9,��
2015/12/10,09:40,1.705,2.710,3.188,2.963,-,0.872,1.552,1.478,���k��,0.8,��
2015/12/10,09:50,1.708,2.713,3.187,2.963,-,0.875,1.550,1.477,���쓌,1.2,��
2015/12/10,10:00,1.710,2.713,3.190,2.965,-,0.875,1.553,1.480,���쓌,1.7,��
2015/12/10,10:10,1.710,2.713,3.192,2.968,-,0.875,1.553,1.478,���쓌,1.2,��
2015/12/10,10:20,1.708,2.718,3.197,2.967,-,0.875,1.552,1.477,��,1.7,��
2015/12/10,10:30,1.712,2.715,3.195,2.967,-,0.873,1.553,1.478,��,1.5,��
2015/12/10,10:40,1.710,2.717,3.195,2.970,-,0.875,1.552,1.477,�k��,1.7,��
2015/12/10,10:50,1.710,2.718,3.195,2.970,-,0.877,1.550,1.478,�k�k��,1.2,��
2015/12/10,11:00,1.712,2.713,3.197,2.970,-,0.878,1.550,1.477,�k��,0.9,��
2015/12/10,11:10,1.713,2.713,3.195,2.967,-,0.877,1.550,1.477,�k�k��,0.6,��
2015/12/10,11:20,1.713,2.717,3.198,2.970,-,0.877,1.552,1.480,��,0.8,��
2015/12/10,11:30,1.713,2.717,3.200,2.972,-,0.877,1.555,1.478,-,CALM,��
2015/12/10,11:40,1.713,2.717,3.200,2.972,-,0.877,1.555,1.477,���쓌,1.1,��
2015/12/10,11:50,1.717,2.720,3.202,2.970,-,0.878,1.552,1.477,��,0.9,��
2015/12/10,12:00,1.717,2.718,3.197,2.973,-,0.878,1.553,1.480,�k�k��,1.5,��
2015/12/10,12:10,1.712,2.720,3.200,2.970,-,0.878,1.552,1.480,�k�k��,2.0,��
2015/12/10,12:20,1.712,2.723,3.200,2.970,-,0.877,1.555,1.480,�k,2.0,��
2015/12/10,12:30,1.712,2.720,3.203,2.970,-,0.880,1.552,1.478,�k,3.0,��
2015/12/10,12:40,1.712,2.720,3.202,2.972,-,0.878,1.555,1.480,�k�k��,3.2,��
2015/12/10,12:50,1.710,2.718,3.195,2.970,-,0.878,1.553,1.480,�k�k��,3.9,��
2015/12/10,13:00,1.708,2.718,3.200,2.973,-,0.878,1.553,1.478,�k�k��,4.2,��
2015/12/10,13:10,1.713,2.722,3.203,2.972,-,0.878,1.553,1.478,�k�k��,4.4,��
2015/12/10,13:20,1.712,2.720,3.203,2.968,-,0.878,1.553,1.480,�k,3.5,��
2015/12/10,13:30,1.712,2.722,3.202,2.968,-,0.878,1.553,1.482,�k,3.0,��
2015/12/10,13:40,1.713,2.720,3.200,2.968,-,0.878,1.553,1.478,�k�k��,2.2,��
2015/12/10,13:50,1.713,2.722,3.202,2.970,-,0.878,1.555,1.482,�k�k��,2.2,��
2015/12/10,14:00,1.715,2.717,3.203,2.972,-,0.878,1.555,1.478,�k�k��,2.9,��
2015/12/10,14:10,1.713,2.717,3.200,2.968,-,0.877,1.555,1.477,�k�k��,3.3,��
2015/12/10,14:20,1.715,2.707,3.202,2.968,-,0.878,1.555,1.477,�k��,3.0,��
2015/12/10,14:30,1.712,2.713,3.200,2.970,-,0.877,1.555,1.478,�k��,2.9,��
2015/12/10,14:40,1.713,2.717,3.200,2.970,-,0.877,1.555,1.480,�k�k��,2.6,��
2015/12/10,14:50,1.712,2.718,3.202,2.968,-,0.878,1.553,1.475,�k,3.4,��
2015/12/10,15:00,1.713,2.722,3.200,2.972,-,0.878,1.555,1.478,�k�k��,2.3,��
2015/12/10,15:10,1.712,2.717,3.202,2.973,-,0.875,1.555,1.482,�k,2.3,��
2015/12/10,15:20,1.713,2.718,3.203,2.972,-,0.878,1.557,1.480,�k,2.3,��
2015/12/10,15:30,1.712,2.720,3.203,2.968,-,0.877,1.553,1.478,�k�k��,2.0,��
2015/12/10,15:40,1.710,2.720,3.202,2.970,-,0.878,1.555,1.480,�k�k��,2.5,��
2015/12/10,15:50,1.710,2.718,3.203,2.970,-,0.877,1.555,1.480,�k,2.3,��
2015/12/10,16:00,1.713,2.718,3.200,2.970,-,0.878,1.557,1.478,�k,2.8,��
2015/12/10,16:10,1.712,2.718,3.200,2.968,-,0.878,1.555,1.480,�k,2.3,��
2015/12/10,16:20,1.712,2.717,3.198,2.970,-,0.880,1.558,1.478,�k�k��,2.3,��
2015/12/10,16:30,1.712,2.718,3.198,2.968,-,0.878,1.555,1.480,�k�k��,2.8,��
2015/12/10,16:40,1.717,2.718,3.198,2.968,-,0.878,1.553,1.478,�k�k��,1.7,��
2015/12/10,16:50,1.715,2.720,3.198,2.965,-,0.877,1.553,1.478,�k�k��,2.3,��
2015/12/10,17:00,1.710,2.717,3.195,2.967,-,0.878,1.553,1.478,�k�k��,1.4,��
2015/12/10,17:10,1.710,2.717,3.195,2.970,-,0.877,1.553,1.480,�k,1.7,��
2015/12/10,17:20,1.710,2.718,3.198,2.968,-,0.877,1.553,1.478,�k,1.7,��
2015/12/10,17:30,1.712,2.718,3.197,2.970,-,0.877,1.552,1.480,�k,1.7,��
2015/12/10,17:40,1.708,2.718,3.193,2.968,-,0.878,1.553,1.478,�k,1.2,��
2015/12/10,17:50,1.712,2.715,3.200,2.968,-,0.878,1.555,1.478,�k�k��,0.9,��
2015/12/10,18:00,1.712,2.717,3.197,2.968,-,0.877,1.552,1.477,�k,1.4,��
2015/12/10,18:10,1.713,2.717,3.195,2.967,-,0.878,1.553,1.478,�k,1.5,��
2015/12/10,18:20,1.713,2.713,3.198,2.967,-,0.878,1.555,1.480,�k�k��,1.2,��
2015/12/10,18:30,1.713,2.717,3.198,2.970,-,0.878,1.553,1.478,�k��,1.4,��
2015/12/10,18:40,1.713,2.718,3.193,2.972,-,0.878,1.555,1.477,�k�k��,1.4,��
2015/12/10,18:50,1.710,2.717,3.195,2.970,-,0.880,1.552,1.478,���쐼,0.8,��
2015/12/10,19:00,1.712,2.718,3.195,2.967,-,0.882,1.553,1.480,-,CALM,��
2015/12/10,19:10,1.713,2.717,3.195,2.968,-,0.882,1.552,1.478,-,CALM,��
2015/12/10,19:20,1.710,2.720,3.200,2.968,-,0.877,1.553,1.477,�k�k��,1.4,��
2015/12/10,19:30,1.710,2.720,3.193,2.970,-,0.880,1.552,1.477,�k�k��,2.2,��
2015/12/10,19:40,1.713,2.715,3.197,2.972,-,0.882,1.553,1.480,�k�k��,2.5,��
2015/12/10,19:50,1.712,2.717,3.192,2.967,-,0.880,1.553,1.478,�k�k��,2.3,��
2015/12/10,20:00,1.715,2.718,3.192,2.970,-,0.877,1.555,1.478,�k�k��,3.7,��
2015/12/10,20:10,1.712,2.718,3.195,2.968,-,0.880,1.553,1.480,�k�k��,2.6,��
2015/12/10,20:20,1.712,2.717,3.193,2.970,-,0.878,1.553,1.478,�k,1.9,��
2015/12/10,20:30,1.712,2.718,3.193,2.970,-,0.880,1.553,1.478,�k,4.0,��
2015/12/10,20:40,1.712,2.717,3.195,2.968,-,0.878,1.555,1.477,�k�k��,4.2,��
2015/12/10,20:50,1.712,2.717,3.195,2.972,-,0.880,1.555,1.478,�k�k��,3.8,��
2015/12/10,21:00,1.710,2.718,3.192,2.968,-,0.880,1.553,1.478,�k�k��,4.2,��
2015/12/10,21:10,1.712,2.717,3.198,2.967,-,0.882,1.552,1.480,�k�k��,5.2,��
2015/12/10,21:20,1.713,2.718,3.197,2.968,-,0.877,1.553,1.480,�k�k��,4.6,��
2015/12/10,21:30,1.712,2.717,3.193,2.968,-,0.878,1.555,1.478,�k,3.8,��
2015/12/10,21:40,1.713,2.717,3.200,2.967,-,0.882,1.557,1.477,�k,3.7,��
2015/12/10,21:50,1.712,2.717,3.198,2.968,-,0.880,1.552,1.478,�k,3.7,��
2015/12/10,22:00,1.712,2.718,3.200,2.972,-,0.880,1.557,1.478,�k,4.0,��
2015/12/10,22:10,1.715,2.717,3.195,2.968,-,0.878,1.557,1.478,�k,3.9,��
2015/12/10,22:20,1.717,2.715,3.195,2.967,-,0.880,1.555,1.480,�k,3.7,��
2015/12/10,22:30,1.713,2.718,3.193,2.968,-,0.880,1.555,1.477,�k,3.7,��
2015/12/10,22:40,1.712,2.718,3.195,2.968,-,0.878,1.553,1.480,�k,4.0,��
2015/12/10,22:50,1.713,2.718,3.200,2.970,-,0.880,1.555,1.478,�k�k��,2.6,��
2015/12/10,23:00,1.713,2.718,3.198,2.972,-,0.880,1.555,1.478,�k��,2.6,��
2015/12/10,23:10,1.717,2.718,3.202,2.968,-,0.882,1.553,1.478,�k�k��,3.1,��
2015/12/10,23:20,1.715,2.718,3.198,2.967,-,0.882,1.553,1.477,�k�k��,2.6,��
2015/12/10,23:30,1.717,2.715,3.202,2.972,-,0.882,1.555,1.477,�k�k��,2.5,��
2015/12/10,23:40,1.715,2.715,3.202,2.970,-,0.878,1.555,1.478,�k�k��,2.8,��
2015/12/10,23:50,1.715,2.717,3.202,2.970,-,0.882,1.553,1.482,�k,3.9,��
